[Date Prev][Date Next][Thread Prev][Thread Next] - [Date Index][Thread Index][Author Index]
2 Line ISS Keps 6-14
- Subject: [sarex] 2 Line ISS Keps 6-14
- From: "Dave Larsen PhD" <doc@xxxxxxxxxxx>
- Date: Tue, 14 Jun 2005 03:40:47 -0700
ISS
1 25544U 98067A 05165.38283942 .00011957 00000-0 90827-4 0 6840
2 25544 051.6451 275.2859 0004340 254.3411 177.9387 15.72807846375244
----
Via the sarex mailing list at AMSAT.ORG courtesy of AMSAT-NA.
To unsubscribe, send "unsubscribe sarex" to Majordomo@amsat.org
AMSAT Home